Location: Fort Wayne
(41.1310°N, 85.1290°W)
Time: 05:09:31
(UTC-04:00)

Cosmos 2219 Rocket - Visible Passes

Search period start: 02 September 2014 00:00
Search period end: 12 September 2014 00:00
Orbit: 829 x 847 km, 71.0° (Epoch: 01 September)

Date Brightness Start Highest point End Pass type
(mag) Time Alt. Az. Time Alt. Az. Time Alt. Az.
02 Sep 3.1 06:22:49 10° S 06:28:10 51° ESE 06:33:33 10° NNE visible
03 Sep 3.2 06:06:39 10° S 06:11:56 47° ESE 06:17:16 10° NE visible
04 Sep 3.3 05:50:29 10° S 05:55:43 43° ESE 06:00:58 10° NE visible
05 Sep 3.4 05:34:21 10° S 05:39:29 40° ESE 05:44:40 10° NE visible
06 Sep 3.5 05:18:12 10° S 05:23:16 37° ESE 05:28:21 10° NE visible
07 Sep 3.6 05:02:41 13° SSE 05:07:03 34° ESE 05:12:02 10° NE visible
07 Sep 3.0 06:45:56 10° WSW 06:50:57 34° WNW 06:56:01 10° N visible
08 Sep 3.6 04:47:36 18° SSE 04:50:49 32° ESE 04:55:42 10° NE visible
08 Sep 2.9 06:29:34 10° SW 06:34:40 36° WNW 06:39:49 10° N visible
09 Sep 3.7 04:32:26 22° SE 04:34:37 29° ESE 04:39:22 10° NE visible
09 Sep 2.8 06:14:13 15° WSW 06:18:23 39° WNW 06:23:37 10° N visible
10 Sep 3.7 04:17:11 25° ESE 04:18:24 27° ESE 04:23:01 10° NE visible
10 Sep 2.7 05:58:57 22° WSW 06:02:06 42° WNW 06:07:24 10° N visible
11 Sep 3.8 04:01:52 25° ESE 04:02:11 25° ESE 04:06:39 10° NE visible
11 Sep 2.6 05:43:38 30° WSW 05:45:50 45° WNW 05:51:12 10° NNE visible
